Wind_Speed
47 48 49 51 51 52 53 55 56 58 60 62 64 66 67 68 69 70 71 72 73 74 75 76 76 75 75 74 74 73 72 71 70 70 70 70 70 71 73 74 75 76 77 78 78 78 78 78 78 78 79 79
49 50 51 52 53 55 56 58 60 62 64 66 67 69 70 71 72 73 74 75 76 76 76 76 75 74 73 72 71 70 69 68 68 68 69 70 70 70 71 72 73 74 75 76 76 77 77 78 78 79 80 81
52 53 54 55 56 58 60 62 64 66 67 69 70 71 73 74 75 76 76 77 76 76 75 73 71 70 69 68 67 67 67 68 68 69 70 70 71 71 72 73 74 75 75 76 77 78 79 80 81 82 83 84
55 56 57 58 60 62 63 65 67 68 70 71 72 73 74 75 76 76 76 75 73 72 70 68 67 66 66 66 67 67 68 69 70 70 71 71 72 73 74 75 75 76 77 78 79 80 81 82 83 84 85 86
57 58 59 61 62 64 66 67 69 70 71 72 73 74 74 74 74 73 71 69 68 67 66 66 65 65 66 66 67 68 69 69 70 71 71 72 73 74 75 76 77 77 78 79 80 81 82 83 84 85 86 86
59 60 61 63 64 65 66 67 68 69 69 69 70 70 69 69 67 66 65 65 64 64 65 64 64 64 65 66 67 68 69 70 71 71 73 74 75 76 77 78 78 79 80 81 82 83 83 84 85 86 87 87
60 61 62 63 64 64 64 64 64 64 64 64 64 64 63 63 62 62 62 63 63 63 63 63 64 64 65 66 68 69 70 72 73 74 75 76 77 79 80 80 81 82 83 84 84 85 85 86 87 87 88 88
59 60 60 61 61 61 61 61 61 61 61 61 61 61 61 61 61 61 62 62 62 62 63 63 64 65 67 69 70 72 73 74 76 77 78 79 80 81 82 83 84 84 85 86 86 87 87 87 88 88 88 89
57 57 57 57 57 57 57 57 58 58 58 59 59 59 59 60 60 61 61 61 62 62 63 64 66 67 69 71 73 74 76 77 78 79 80 81 82 83 84 85 86 86 86 87 87 87 88 88 88 88 88 88
54 54 54 54 54 54 55 55 55 55 56 56 57 58 59 60 61 62 63 63 64 65 66 67 68 70 72 73 75 76 78 79 80 81 82 83 84 85 86 86 87 87 87 88 88 88 88 88 88 88 88 88
52 52 53 53 53 53 54 54 54 55 56 57 58 59 61 62 63 65 66 67 68 69 70 71 72 74 75 77 79 80 80 81 81 82 83 84 85 86 86 87 87 88 88 88 89 89 89 89 89 89 88 88
51 52 52 52 53 54 54 55 56 57 58 60 61 63 64 66 67 68 69 70 72 73 74 75 76 78 80 82 83 84 84 83 83 83 84 85 86 86 87 87 87 88 88 89 89 89 89 89 89 89 89 89
51 52 52 54 55 57 58 59 60 62 63 65 66 67 69 70 72 73 74 75 76 77 78 79 80 82 84 85 86 86 86 86 86 86 86 86 87 87 87 88 88 88 89 89 89 90 90 90 90 90 90 90
53 54 56 58 60 61 63 64 66 67 68 69 70 72 73 75 76 77 79 80 81 81 82 83 85 86 87 88 88 88 87 87 87 88 88 88 88 88 88 88 89 89 89 89 90 90 90 90 91 91 92 92
57 59 61 62 64 65 66 68 69 70 71 72 73 74 76 77 78 80 81 82 83 84 85 86 88 88 89 89 89 89 89 89 89 89 90 89 89 89 89 89 89 89 89 89 90 90 90 91 92 92 93 93
62 64 65 66 67 68 69 70 71 72 73 74 75 76 77 79 81 82 83 85 86 87 88 89 89 90 90 90 90 91 91 91 91 91 90 90 89 89 89 89 89 89 89 89 90 90 91 92 92 92 93 94
65 67 68 69 70 71 72 73 74 75 75 75 76 77 79 82 83 85 86 88 88 89 90 90 91 91 92 93 93 93 93 93 92 91 90 89 89 88 88 88 89 89 89 90 90 91 92 92 93 93 94 95
68 69 70 71 72 73 74 75 75 75 76 77 79 81 83 85 86 87 88 89 89 90 91 91 92 93 94 95 95 94 94 93 91 90 89 88 88 88 88 88 89 90 91 91 92 92 93 93 94 96 97 98
69 70 71 72 73 74 74 75 75 76 78 80 82 84 86 87 88 88 88 89 89 90 91 92 93 93 94 94 93 92 91 90 89 88 88 87 88 89 90 90 90 90 91 92 93 94 95 96 97 99 100 101
70 71 72 73 73 73 74 75 77 79 81 83 85 87 87 88 88 87 88 89 89 90 91 91 91 91 91 91 90 89 89 88 88 88 88 88 88 89 90 91 92 93 94 95 96 97 98 99 100 101 101 102
72 72 72 72 72 73 75 78 80 83 85 86 87 87 87 87 87 87 88 88 89 89 89 89 89 89 89 89 88 88 88 88 88 89 89 90 89 89 91 92 94 95 97 98 99 100 100 100 100 100 101 101
71 71 71 72 73 76 79 82 84 86 86 86 86 86 86 86 86 87 87 87 87 88 88 88 88 89 89 88 88 88 88 89 89 90 91 92 92 93 93 94 95 96 98 99 100 100 100 100 99 99 99 99
70 71 72 74 77 80 83 84 85 86 86 86 85 85 84 85 85 86 86 87 87 88 89 89 89 89 89 89 90 90 90 91 91 92 93 94 95 96 96 96 95 95 95 96 96 97 97 97 96 96 95 95
71 72 75 78 81 83 84 84 85 85 84 84 83 83 83 83 84 86 87 88 89 90 90 90 90 90 90 90 91 91 91 92 92 93 94 94 94 94 94 94 92 90 89 89 89 91 92 93 94 93 93 93
73 76 79 81 82 83 83 83 83 84 83 82 81 82 82 83 85 87 88 89 89 89 89 89 89 89 89 89 89 89 89 89 89 89 88 88 88 88 88 89 89 88 87 86 86 88 90 93 94 94 94 93
76 79 80 80 80 81 81 82 83 82 81 81 82 83 84 84 86 87 87 87 86 86 86 85 85 84 84 83 83 83 83 82 82 81 82 82 83 85 86 88 90 91 91 91 90 90 91 92 94 96 97 96
76 76 77 77 79 80 81 81 80 80 80 81 83 84 85 86 86 86 85 84 84 83 82 81 80 79 79 78 77 77 77 77 78 79 81 83 85 88 90 92 94 95 95 94 94 93 91 91 91 93 95 95
72 73 75 77 78 79 78 78 77 78 80 82 83 84 85 84 83 83 82 82 81 80 79 78 77 77 76 75 75 76 77 78 80 82 84 86 88 90 92 93 95 95 95 94 93 92 91 89 88 89 90 91
71 72 74 75 76 76 75 75 76 77 79 80 81 82 81 81 81 82 82 81 80 78 77 77 77 77 77 77 77 78 80 81 83 84 86 88 90 91 92 93 93 94 94 93 92 91 90 88 87 87 87 87
69 70 71 72 73 73 73 74 75 76 77 78 78 79 79 80 82 83 84 83 81 80 79 79 79 79 79 80 81 81 83 84 86 88 90 92 93 94 94 94 94 94 94 94 93 93 92 91 89 88 88 87
67 68 70 71 72 73 73 74 75 75 75 76 77 78 80 82 84 86 86 84 83 83 82 82 82 82 82 83 84 85 87 89 91 93 95 96 97 97 97 96 95 95 95 95 95 94 94 93 93 91 90 90
Wind_Direction
288 289 290 290 290 290 290 290 291 291 292 292 292 293 293 293 293 294 294 294 295 295 295 295 295 294 293 293 293 293 293 293 292 292 291 290 289 289 288 288 288 287 287 287 287 287 287 287 287 287 286 286
291 291 291 291 290 290 290 291 291 292 292 293 293 294 294 294 295 295 295 296 296 295 295 295 295 294 294 294 294 294 293 292 291 290 290 289 289 289 289 289 288 288 288 288 287 287 287 287 287 287 287 286
291 291 291 291 291 291 291 292 293 293 294 294 294 294 294 294 295 295 295 295 295 295 295 295 295 295 294 293 293 292 292 291 291 291 291 292 291 291 290 290 289 289 289 289 289 289 289 288 288 288 287 287
292 292 292 293 293 293 293 294 294 294 294 294 294 293 293 293 293 293 294 294 294 294 294 294 293 293 293 292 293 293 293 294 294 294 294 294 293 293 292 292 292 291 291 291 290 290 290 289 289 288 288 287
292 293 293 293 293 294 294 294 294 294 294 293 293 293 293 293 293 293 293 293 293 293 293 292 293 293 294 295 296 296 296 296 296 296 296 296 295 294 294 293 293 292 292 291 291 290 290 290 289 289 288 288
292 293 293 293 294 294 294 295 295 295 295 295 295 294 294 294 294 294 293 293 293 293 294 295 296 297 298 298 298 298 298 298 298 298 297 296 296 295 294 294 293 293 292 291 291 291 290 290 290 289 289 288
293 294 294 295 296 296 297 297 298 298 298 297 297 296 295 295 294 294 294 294 295 296 297 299 299 300 300 300 300 300 300 299 299 298 297 296 296 295 294 294 293 293 292 292 291 291 290 290 289 289 288 288
296 297 298 299 299 300 300 300 300 299 299 298 297 297 296 296 295 296 296 297 298 299 300 301 302 302 302 302 301 301 300 299 299 298 297 296 295 295 294 294 293 292 292 291 291 290 290 290 289 289 289 288
301 302 302 302 302 302 301 300 300 299 299 299 298 298 298 298 299 299 300 301 301 302 302 303 303 303 303 302 302 301 300 299 298 297 296 296 295 294 294 294 293 293 292 292 291 291 291 291 290 290 290 290
304 303 303 302 301 301 301 301 301 301 302 302 303 303 304 304 305 305 305 304 304 303 303 303 303 303 303 302 302 301 300 299 298 297 296 296 295 295 295 295 295 294 294 293 293 293 293 292 292 292 291 291
302 301 301 301 301 302 303 304 305 306 307 308 309 310 310 310 310 309 308 307 305 304 303 302 302 302 302 302 301 301 301 300 299 298 297 297 296 296 296 296 296 296 295 295 295 295 294 294 294 294 294 293
302 302 303 304 305 307 308 309 310 311 312 313 313 313 312 312 311 310 309 308 307 305 304 303 302 302 302 302 302 302 302 301 300 299 299 298 298 297 297 297 297 297 296 296 296 296 296 296 296 296 296 296
306 307 308 309 311 312 313 314 314 314 315 315 314 314 313 313 312 312 311 310 309 307 306 305 304 304 304 303 303 303 302 302 301 300 300 299 299 298 298 298 297 297 297 296 296 296 296 296 297 297 297 297
310 312 313 314 315 316 316 316 316 316 316 315 315 314 313 313 312 312 311 310 309 308 307 306 305 304 304 303 303 302 302 302 301 300 300 299 299 298 298 297 297 296 296 296 296 296 296 297 297 297 297 297
314 315 316 317 317 317 317 317 317 316 316 315 314 313 312 312 311 311 310 309 308 307 306 305 305 304 303 303 303 302 302 301 300 300 299 298 298 297 297 296 296 296 296 296 296 296 296 296 296 296 296 296
316 317 317 317 317 317 317 317 316 315 314 313 312 311 311 311 310 310 309 308 307 306 306 305 304 304 303 303 302 302 301 300 300 299 298 298 297 297 296 296 296 296 296 296 296 296 296 296 296 296 295 295
316 316 316 316 316 316 316 316 315 314 312 312 311 311 310 310 310 309 308 308 307 306 306 305 305 304 303 303 302 301 301 300 299 299 298 298 297 297 297 297 297 297 297 297 296 296 296 296 296 296 296 295
316 315 315 315 316 316 315 314 313 312 311 311 311 310 310 310 310 309 309 308 307 307 306 305 304 304 303 302 302 301 301 300 300 300 299 299 299 299 298 298 298 298 298 298 298 298 298 297 297 297 297 296
315 314 314 315 315 315 313 312 311 311 311 310 310 311 310 310 310 309 309 308 307 306 305 304 304 303 303 303 302 302 302 302 302 302 301 301 301 301 300 300 300 300 299 299 299 299 298 298 297 297 297 297
315 314 315 315 314 313 311 311 310 310 311 311 311 311 311 310 310 309 308 307 306 305 305 304 304 304 304 304 304 304 304 304 303 303 303 302 302 301 301 301 300 300 299 299 299 298 298 297 297 297 297 297
315 315 315 314 313 311 311 311 311 311 311 311 311 311 311 310 310 309 308 307 306 306 306 306 306 306 306 306 305 305 305 304 304 303 302 302 301 301 300 300 300 300 299 299 299 298 298 297 297 297 296 296
315 315 314 313 312 311 311 311 311 312 312 311 311 312 311 310 309 308 308 307 307 308 308 308 307 307 307 306 305 305 304 303 303 302 302 301 301 301 300 299 299 299 299 299 299 299 298 298 297 297 297 296
315 315 313 312 312 312 312 312 312 312 312 312 312 312 311 310 310 310 310 310 310 309 309 308 308 307 306 305 304 303 303 302 302 302 301 301 301 301 300 300 300 299 299 300 300 300 300 299 299 299 298 298
315 313 312 312 312 312 312 312 312 312 312 312 312 312 313 313 313 313 312 312 311 310 309 308 307 306 305 304 303 303 302 302 302 302 302 302 302 302 302 302 302 301 301 301 301 302 302 302 301 301 300 299
313 313 312 312 312 312 312 311 311 311 311 311 312 314 315 315 314 314 313 312 311 310 309 308 307 306 305 304 304 304 303 304 304 304 305 305 305 305 305 305 305 305 304 304 304 304 304 304 303 302 302 301
313 313 313 312 311 311 311 311 311 311 311 313 314 316 316 315 315 314 314 313 312 311 309 308 308 307 307 306 306 307 307 307 308 308 308 308 309 309 309 309 308 308 308 307 306 305 305 304 304 304 303 303
313 313 312 311 311 310 311 311 312 313 314 315 316 317 317 316 315 315 314 314 313 312 311 310 310 310 310 310 310 310 311 311 311 312 313 313 313 312 312 311 310 309 308 307 306 305 305 304 303 303 302 303
313 312 312 311 311 312 313 314 315 316 316 317 317 317 316 316 316 316 316 316 316 315 314 314 313 313 313 313 313 314 314 314 315 315 315 314 313 312 311 310 309 308 307 306 306 305 304 303 303 302 301 301
313 313 312 313 314 316 318 318 318 318 317 316 316 315 315 316 318 319 320 320 320 319 319 318 318 317 317 317 317 317 316 316 316 315 315 314 314 313 312 311 310 309 308 307 306 306 305 304 303 302 301 300
314 314 316 318 320 322 322 321 320 318 316 315 315 316 317 320 323 324 324 324 324 323 323 322 322 321 320 320 319 318 318 317 317 317 316 316 315 315 314 313 311 310 309 309 308 307 306 305 304 303 302 301
317 319 322 324 325 325 324 323 321 319 318 318 319 320 322 325 326 326 326 327 327 327 327 326 325 324 323 322 321 321 320 320 319 319 318 317 316 315 315 314 312 311 310 309 308 307 306 305 304 303 302 301
Height
10773 10771 10769 10767 10765 10763 10760 10758 10756 10753 10750 10747 10744 10741 10739 10736 10733 10730 10727 10724 10721 10718 10715 10712 10709 10705 10702 10699 10696 10693 10690 10688 10685 10682 10679 10676 10673 10670 10668 10665 10662 10659 10656 10653 10650 10647 10643 10640 10637 10634 10630 10627
10769 10767 10765 10763 10760 10758 10755 10753 10750 10747 10744 10741 10738 10735 10732 10729 10726 10723 10720 10717 10714 10711 10707 10704 10700 10697 10694 10691 10688 10685 10682 10679 10676 10673 10670 10667 10665 10662 10659 10656 10653 10650 10647 10644 10641 10638 10634 10631 10627 10624 10621 10617
10765 10763 10761 10758 10756 10753 10750 10747 10744 10741 10738 10735 10732 10729 10726 10723 10719 10716 10713 10710 10706 10703 10699 10696 10693 10689 10686 10683 10680 10677 10674 10671 10668 10665 10662 10659 10657 10654 10651 10648 10645 10642 10638 10635 10632 10629 10625 10621 10618 10614 10611 10608
10761 10758 10756 10753 10750 10748 10745 10742 10739 10736 10732 10729 10726 10723 10719 10716 10712 10709 10705 10702 10699 10695 10692 10689 10685 10682 10679 10676 10672 10669 10666 10663 10660 10657 10654 10651 10648 10645 10642 10639 10636 10633 10629 10626 10623 10620 10616 10612 10608 10605 10601 10598
10756 10753 10751 10748 10745 10742 10739 10736 10733 10729 10726 10723 10719 10716 10712 10709 10705 10702 10698 10695 10691 10688 10685 10682 10678 10675 10672 10669 10665 10662 10659 10655 10652 10649 10646 10642 10639 10636 10633 10630 10627 10623 10620 10617 10613 10610 10607 10603 10599 10595 10591 10587
10751 10748 10745 10742 10739 10736 10732 10729 10726 10722 10719 10716 10712 10708 10705 10702 10698 10695 10691 10688 10685 10681 10678 10675 10671 10668 10665 10661 10658 10654 10651 10647 10644 10640 10637 10634 10630 10627 10623 10620 10617 10614 10610 10607 10603 10600 10597 10593 10588 10584 10580 10577
10745 10742 10739 10736 10733 10729 10726 10722 10719 10715 10712 10709 10705 10702 10698 10695 10692 10688 10685 10681 10678 10675 10671 10668 10664 10661 10658 10654 10650 10647 10643 10639 10636 10632 10628 10625 10621 10617 10614 10610 10607 10604 10600 10597 10593 10590 10586 10582 10578 10574 10570 10566
10739 10736 10733 10730 10726 10723 10720 10716 10713 10709 10706 10702 10699 10695 10692 10688 10685 10682 10678 10675 10672 10668 10665 10661 10658 10654 10651 10647 10643 10639 10636 10632 10628 10624 10620 10616 10612 10608 10604 10600 10596 10593 10590 10586 10583 10579 10575 10572 10567 10563 10559 10555
10734 10730 10727 10724 10721 10718 10714 10711 10707 10704 10700 10697 10693 10689 10686 10682 10679 10676 10672 10669 10666 10662 10659 10655 10651 10647 10644 10640 10636 10632 10628 10624 10620 10616 10611 10607 10602 10598 10594 10589 10585 10581 10578 10575 10571 10567 10563 10559 10555 10551 10547 10543
10729 10726 10722 10719 10716 10713 10709 10706 10702 10699 10695 10691 10688 10684 10680 10677 10673 10670 10667 10663 10660 10656 10652 10648 10644 10640 10636 10632 10628 10623 10619 10615 10610 10606 10602 10597 10593 10588 10584 10579 10574 10570 10565 10562 10558 10555 10551 10547 10543 10539 10535 10531
10724 10721 10718 10715 10711 10708 10704 10700 10697 10693 10689 10686 10682 10678 10674 10671 10667 10664 10660 10656 10652 10649 10644 10640 10636 10632 10628 10623 10618 10614 10609 10605 10600 10596 10591 10587 10582 10577 10573 10568 10564 10559 10554 10550 10546 10542 10539 10535 10531 10527 10523 10519
10720 10716 10713 10709 10705 10702 10698 10694 10691 10687 10684 10680 10676 10672 10668 10664 10660 10656 10652 10648 10644 10640 10636 10632 10627 10623 10618 10613 10609 10604 10599 10594 10590 10585 10581 10576 10571 10567 10562 10557 10553 10548 10543 10539 10534 10530 10526 10522 10518 10514 10510 10506
10714 10711 10707 10703 10699 10695 10692 10688 10685 10681 10677 10673 10669 10665 10661 10657 10652 10648 10644 10640 10635 10631 10627 10622 10618 10613 10608 10603 10599 10594 10589 10584 10579 10574 10570 10565 10560 10556 10551 10546 10542 10537 10533 10528 10523 10518 10514 10510 10506 10502 10498 10494
10709 10705 10701 10697 10693 10689 10685 10682 10678 10674 10671 10666 10662 10658 10653 10649 10644 10640 10635 10631 10626 10622 10618 10613 10608 10603 10598 10593 10588 10584 10579 10574 10569 10564 10559 10554 10549 10545 10540 10536 10531 10526 10522 10517 10512 10507 10503 10498 10494 10490 10486 10482
10703 10699 10695 10691 10687 10683 10679 10675 10672 10668 10664 10660 10655 10651 10646 10642 10637 10632 10627 10622 10618 10613 10608 10603 10598 10593 10588 10583 10578 10573 10568 10563 10559 10553 10548 10543 10539 10534 10529 10525 10520 10515 10510 10506 10501 10497 10492 10487 10483 10479 10475 10470
10697 10693 10689 10685 10681 10677 10673 10669 10665 10661 10657 10653 10649 10644 10639 10634 10629 10624 10619 10614 10608 10603 10598 10593 10588 10583 10577 10572 10567 10562 10557 10553 10548 10543 10538 10533 10528 10524 10518 10513 10509 10504 10499 10494 10490 10485 10481 10476 10472 10469 10465 10460
10691 10687 10683 10679 10675 10670 10666 10662 10658 10654 10649 10645 10641 10637 10631 10626 10621 10616 10610 10604 10599 10593 10588 10582 10577 10572 10566 10561 10556 10551 10546 10541 10537 10532 10527 10522 10517 10513 10508 10503 10498 10493 10488 10484 10479 10475 10470 10465 10461 10457 10453 10449
10685 10681 10677 10673 10668 10664 10659 10655 10651 10646 10642 10637 10633 10628 10623 10618 10613 10607 10601 10595 10590 10584 10577 10572 10566 10561 10555 10550 10545 10540 10535 10530 10525 10521 10517 10512 10506 10501 10497 10493 10488 10482 10476 10471 10467 10463 10459 10454 10449 10444 10440 10436
10679 10675 10671 10666 10661 10657 10652 10648 10643 10639 10634 10629 10625 10620 10615 10609 10604 10598 10592 10586 10580 10574 10568 10562 10556 10551 10545 10539 10534 10529 10524 10519 10514 10509 10505 10501 10496 10489 10484 10480 10476 10472 10466 10460 10455 10451 10446 10442 10437 10431 10426 10421
10673 10668 10664 10659 10654 10650 10645 10640 10635 10631 10626 10621 10616 10611 10605 10600 10595 10590 10583 10577 10571 10565 10559 10552 10546 10541 10535 10529 10523 10518 10513 10508 10503 10498 10493 10490 10487 10481 10473 10468 10464 10460 10455 10450 10444 10439 10434 10430 10425 10420 10413 10408
10666 10661 10657 10652 10647 10642 10637 10632 10627 10623 10618 10613 10608 10603 10597 10590 10585 10580 10574 10568 10562 10555 10549 10543 10537 10531 10525 10519 10513 10508 10503 10498 10493 10488 10483 10478 10475 10472 10466 10460 10455 10449 10442 10437 10432 10426 10421 10417 10413 10408 10402 10396
10659 10654 10650 10645 10640 10634 10629 10624 10619 10614 10609 10604 10599 10594 10588 10582 10576 10570 10564 10558 10552 10546 10539 10533 10527 10521 10515 10509 10504 10499 10494 10489 10483 10478 10473 10468 10463 10459 10456 10451 10447 10441 10433 10426 10420 10414 10407 10403 10400 10396 10390 10385
10652 10647 10642 10637 10632 10627 10622 10617 10611 10605 10600 10595 10590 10585 10579 10573 10566 10560 10554 10548 10542 10536 10529 10523 10518 10512 10506 10500 10494 10489 10484 10479 10474 10468 10463 10458 10452 10447 10442 10439 10437 10433 10426 10418 10411 10403 10395 10389 10386 10382 10377 10372
10646 10641 10635 10630 10625 10619 10614 10609 10603 10597 10592 10586 10581 10576 10570 10564 10557 10550 10544 10538 10532 10526 10520 10513 10508 10502 10496 10491 10485 10479 10474 10469 10464 10459 10453 10447 10442 10436 10429 10423 10422 10420 10417 10412 10404 10395 10387 10378 10373 10370 10365 10360
10639 10634 10629 10623 10617 10611 10606 10601 10595 10589 10584 10578 10573 10567 10562 10556 10549 10543 10536 10529 10523 10517 10510 10504 10498 10492 10487 10481 10475 10469 10464 10459 10454 10449 10443 10437 10431 10425 10419 10411 10406 10404 10402 10400 10395 10388 10379 10368 10360 10356 10351 10348
10632 10627 10622 10616 10610 10605 10599 10594 10588 10582 10576 10569 10563 10558 10552 10547 10541 10535 10528 10521 10514 10507 10501 10494 10488 10482 10477 10471 10465 10459 10454 10449 10444 10438 10433 10427 10420 10414 10408 10400 10394 10390 10387 10384 10380 10377 10372 10363 10352 10343 10335 10332
10626 10620 10615 10609 10604 10598 10593 10587 10581 10574 10567 10560 10554 10548 10542 10537 10531 10525 10519 10512 10504 10497 10491 10484 10478 10472 10467 10461 10455 10449 10444 10438 10433 10428 10422 10416 10410 10403 10397 10389 10381 10376 10374 10371 10366 10363 10360 10356 10349 10339 10329 10322
10620 10614 10608 10603 10597 10592 10586 10580 10574 10567 10559 10552 10546 10541 10535 10528 10523 10516 10510 10503 10495 10488 10481 10475 10469 10463 10457 10452 10446 10440 10434 10428 10423 10417 10412 10405 10400 10394 10387 10380 10371 10363 10359 10356 10353 10349 10346 10342 10339 10333 10325 10319
10613 10608 10602 10596 10590 10585 10579 10573 10567 10561 10553 10547 10541 10534 10528 10522 10515 10508 10501 10494 10487 10480 10473 10466 10460 10454 10448 10443 10437 10431 10425 10419 10413 10407 10402 10395 10389 10383 10377 10370 10361 10352 10345 10341 10337 10333 10330 10326 10325 10321 10315 10311
10606 10600 10595 10589 10583 10577 10571 10565 10560 10554 10547 10541 10534 10527 10520 10513 10506 10499 10492 10485 10479 10472 10465 10458 10452 10445 10439 10433 10427 10421 10415 10409 10403 10396 10390 10384 10377 10371 10365 10359 10351 10341 10333 10326 10321 10317 10313 10309 10306 10305 10301 10297
10599 10593 10587 10581 10575 10569 10563 10557 10551 10545 10539 10533 10526 10519 10511 10505 10498 10491 10484 10477 10469 10462 10456 10450 10443 10437 10430 10424 10417 10411 10404 10398 10391 10385 10378 10372 10365 10359 10352 10346 10340 10331 10323 10316 10308 10303 10299 10293 10288 10286 10283 10279